Temperature
18 19 19 19 19 18 18 17 17 18 18 19 18 17 17 18 18 18 18 19 19 19 19 19 19 19 19 19 18 18 18 18 18 17 17 17 17 17 16 16 16 16 16 16
18 18 19 19 19 19 18 18 18 18 18 18 17 17 17 17 18 18 18 19 19 19 19 19 19 19 19 19 19 18 18 18 18 18 17 17 17 17 16 16 16 16 16 16
16 17 18 18 18 18 18 18 18 18 18 17 17 16 16 17 17 17 18 19 19 19 20 20 20 20 20 19 19 19 18 18 18 18 17 17 17 17 17 16 16 16 16 16
15 17 17 17 17 18 18 17 17 17 17 16 16 16 16 16 17 17 18 18 19 19 19 20 20 19 19 19 19 19 18 18 18 18 18 17 17 17 17 17 16 16 16 16
14 15 16 17 17 17 17 17 16 16 16 15 15 16 16 16 17 17 17 18 19 19 19 19 19 19 19 19 19 18 18 18 18 18 18 17 17 17 17 17 16 16 16 16
13 15 16 17 16 16 17 16 16 15 15 15 15 16 15 15 16 17 17 17 18 19 19 19 19 19 19 18 18 18 18 18 18 18 18 18 17 17 17 17 16 16 16 16
14 15 15 15 15 16 16 16 15 15 15 14 14 14 14 14 15 16 16 17 17 18 18 18 18 18 18 18 18 18 18 18 17 17 17 17 17 17 17 16 16 16 16 15
13 14 15 14 15 15 14 14 14 14 14 14 14 14 14 14 14 15 16 16 16 17 17 17 17 17 17 17 17 17 17 17 17 17 16 16 16 16 16 16 15 15 15 15
12 13 13 13 13 14 14 14 14 14 14 14 13 13 13 13 13 14 14 15 15 16 16 16 16 17 16 16 16 16 16 16 16 16 15 15 15 15 15 15 15 15 14 14
12 12 13 13 13 14 14 14 14 14 14 14 13 13 13 13 13 13 14 14 14 15 15 15 15 15 15 15 15 15 15 15 15 15 15 15 14 14 14 14 14 14 14 14
12 12 12 13 13 13 13 13 13 14 13 13 13 13 12 12 13 13 13 13 14 14 14 14 14 14 14 14 14 14 14 14 14 14 14 14 14 14 14 14 13 13 13 13
12 12 12 12 13 13 13 13 13 13 13 13 13 12 12 12 12 13 13 13 13 13 13 13 13 13 13 14 14 14 14 14 14 13 13 13 13 13 13 13 13 12 12 12
13 13 12 12 12 13 12 12 13 12 12 12 12 12 12 12 12 12 12 12 12 12 13 13 13 13 13 13 13 13 13 13 13 13 13 13 12 12 12 12 12 12 12 11
13 13 12 12 12 12 12 12 12 12 12 12 12 12 12 12 12 12 12 12 12 12 12 12 12 12 12 12 12 12 12 12 12 12 12 12 12 12 12 12 11 11 11 11
12 12 12 12 12 12 12 12 12 11 11 11 11 12 12 11 11 11 11 12 12 12 12 12 12 11 11 12 12 12 12 12 12 12 11 11 11 11 11 11 11 10 10 10
12 12 12 12 12 12 12 12 11 11 11 11 11 11 11 11 11 11 11 11 11 11 11 11 11 11 11 11 11 11 11 11 11 11 11 11 10 10 10 10 10 10 10 9
12 11 11 11 11 11 12 12 12 11 12 11 11 11 11 11 11 11 11 11 11 11 11 11 10 10 10 10 10 10 10 10 10 10 10 10 9 9 9 9 9 9 9 8
12 12 12 12 12 12 11 11 12 11 11 11 11 11 11 11 11 11 10 10 10 10 10 10 10 10 10 10 10 10 10 9 9 9 9 9 9 8 8 8 8 8 8 8
12 12 12 12 12 12 12 11 11 11 11 11 11 11 11 11 11 10 10 10 10 10 10 10 10 10 9 9 9 9 9 9 9 8 8 8 8 8 8 7 7 7 7 7
11 11 11 12 12 12 12 11 11 11 11 11 11 11 10 10 10 10 10 10 9 9 9 9 9 9 9 9 8 8 8 8 8 8 7 7 7 7 7 6 6 6 6 6
11 11 11 11 11 11 11 11 11 11 11 11 11 10 10 10 10 10 10 9 9 9 9 8 8 8 8 8 8 7 7 7 7 7 6 6 6 6 6 5 5 5 5 5
10 11 11 11 11 11 11 11 11 11 10 10 10 10 10 10 9 9 9 9 8 8 8 8 8 7 7 7 7 6 6 6 6 6 5 5 5 5 5 5 5 4 4 4
10 10 11 11 11 10 10 10 10 10 10 10 10 10 9 9 9 9 8 8 8 7 7 7 7 6 6 6 6 6 5 5 5 5 5 4 4 4 4 4 4 4 4 4
10 10 10 10 10 10 10 10 10 10 10 9 9 9 9 9 8 8 8 7 7 7 6 6 6 6 5 5 5 5 4 4 4 4 4 4 4 3 3 3 3 3 3 3
10 10 10 10 10 10 9 9 9 9 9 9 9 8 8 8 8 7 7 7 6 6 6 5 5 5 4 4 4 4 4 4 3 3 3 3 3 3 3 3 3 3 3 3
10 10 10 9 9 9 9 9 9 9 9 8 8 8 7 7 7 6 6 6 5 5 5 4 4 4 4 3 3 3 3 3 3 3 2 2 2 2 2 2 2 2 2 2
9 9 9 9 9 8 8 8 8 8 8 8 7 7 7 6 6 6 5 5 5 4 4 4 3 3 3 3 3 3 2 2 2 2 2 2 2 2 2 2 2 2 2 2
Wind_Speed
3 3 3 4 4 5 6 7 8 8 7 8 6 4 3 3 4 4 5 6 8 9 9 9 9 11 12 12 11 11 12 12 11 10 9 9 9 9 9 9 10 9 9 9
1 2 3 3 5 5 5 5 6 5 7 5 3 0 0 1 3 5 5 6 7 8 9 10 11 11 11 11 11 11 12 12 10 10 10 10 10 10 9 9 8 8 10 10
3 2 1 4 5 5 4 4 5 7 6 2 2 1 1 0 1 3 4 5 6 7 8 9 10 10 12 11 11 12 12 11 10 11 11 11 10 10 10 10 9 9 9 9
2 1 5 6 2 2 3 3 4 3 3 2 2 1 2 2 0 1 1 2 4 5 6 7 7 8 9 9 11 12 11 11 11 11 11 10 10 11 10 8 9 9 9 9
3 3 5 4 1 0 2 4 2 2 2 1 1 2 4 5 4 2 1 1 2 3 4 5 6 8 8 8 9 10 10 11 11 11 11 10 10 10 9 8 8 8 7 8
3 4 6 4 2 3 1 3 1 1 1 1 2 1 1 4 5 5 5 5 4 2 3 4 5 8 9 8 8 8 8 8 8 9 10 10 10 9 7 7 8 8 7 8
3 4 5 3 5 1 3 4 3 1 1 1 1 1 1 3 5 5 6 6 6 6 5 3 4 8 9 7 7 6 5 5 5 6 8 8 7 6 6 7 6 7 7 6
3 3 5 4 3 1 3 3 3 1 1 2 4 4 4 5 6 7 8 8 8 8 8 6 5 8 8 6 4 4 6 5 4 4 4 5 5 5 5 6 6 5 5 4
4 4 3 2 2 3 3 3 2 0 1 3 4 5 6 6 7 7 8 8 8 9 10 9 9 8 7 4 4 6 6 5 3 3 3 3 4 5 4 4 4 3 3 4
1 3 3 3 2 2 1 1 1 3 4 5 6 6 7 7 7 8 8 8 8 10 11 9 9 8 6 4 5 7 6 5 4 4 3 3 2 3 3 3 3 3 3 3
2 2 3 4 3 3 4 4 6 8 8 7 8 8 8 8 8 8 8 7 8 9 9 9 9 9 7 6 7 8 7 6 5 4 4 3 3 2 2 1 2 3 3 3
3 3 2 1 3 4 6 7 9 11 11 10 11 11 10 10 8 9 9 9 10 9 9 9 9 9 8 7 7 8 7 6 4 4 3 3 4 4 6 5 5 4 2 2
2 1 2 2 5 6 8 9 11 12 12 11 10 10 11 10 9 9 10 10 9 8 8 8 9 10 8 7 8 8 7 5 4 4 3 3 3 3 3 4 6 6 5 3
3 4 4 4 5 8 10 11 13 13 12 11 10 10 10 10 9 10 8 7 7 8 8 9 10 9 7 6 8 8 6 6 5 3 3 3 3 3 3 3 3 3 4 5
4 5 6 7 8 9 9 11 13 12 11 10 10 10 10 10 9 8 7 7 8 10 9 9 10 8 7 7 8 8 6 4 4 4 4 4 4 3 3 3 3 2 3 4
6 8 9 10 9 9 10 11 11 10 9 9 9 8 8 9 8 8 8 8 9 9 7 8 8 6 6 7 7 6 6 8 6 5 5 4 4 4 4 4 3 3 3 3
8 7 8 9 8 8 8 8 8 8 8 9 8 7 8 9 9 9 8 7 8 7 7 7 6 5 6 6 6 5 5 6 7 6 5 5 4 4 4 3 3 3 3 3
7 7 8 8 9 9 9 8 8 8 7 7 8 8 9 8 7 6 5 6 8 9 8 6 5 6 6 6 5 5 5 5 5 5 4 4 4 4 3 3 3 3 3 4
10 10 9 9 8 9 8 8 7 7 7 8 9 9 7 6 6 5 6 8 8 7 6 6 7 7 7 7 6 4 5 5 5 5 4 5 4 4 3 3 3 3 4 4
11 10 10 9 9 9 9 8 9 8 7 8 9 9 8 6 6 7 8 7 4 2 3 5 6 6 6 6 7 5 5 5 5 4 4 4 4 4 4 4 4 4 4 4
10 10 10 10 10 9 8 8 9 8 6 7 8 7 6 5 5 6 6 6 5 5 5 7 6 5 5 6 7 5 5 5 5 4 4 4 4 4 4 4 4 4 4 4
8 9 10 10 10 8 7 7 8 8 7 7 6 7 7 6 6 6 6 4 3 6 5 5 5 6 7 7 6 6 5 5 4 4 4 4 3 3 4 4 4 4 4 5
7 8 9 9 9 8 7 7 7 7 6 6 5 5 5 4 3 4 4 3 4 7 6 6 7 9 9 7 6 6 5 5 5 4 4 4 4 4 4 4 4 4 5 5
8 8 8 8 8 9 8 6 6 6 6 5 5 5 5 5 5 4 3 5 8 8 7 7 10 10 9 6 5 5 5 5 5 4 4 4 4 4 4 4 4 4 5 6
8 8 8 8 8 6 5 5 6 7 7 6 7 7 5 4 4 4 5 6 8 8 6 8 10 10 7 5 6 5 5 5 5 4 4 4 4 4 4 4 5 5 5 5
6 6 5 5 5 4 4 4 4 4 4 5 5 5 5 5 6 6 6 7 8 8 6 5 6 7 6 5 6 5 5 5 5 5 5 5 5 5 5 5 6 5 5 5
7 6 5 5 5 4 4 4 4 3 4 5 5 4 5 5 6 6 6 6 5 5 5 5 5 5 5 5 5 5 5 5 5 5 5 5 5 5 5 6 5 5 5 6
Wind_Direction
218 234 193 229 238 198 187 189 194 227 234 262 274 272 257 210 181 168 180 189 192 193 193 192 191 192 191 190 186 181 181 188 195 194 191 190 190 191 191 191 197 195 195 200
296 262 218 246 254 224 216 205 220 245 260 266 286 281 42 158 170 184 196 198 198 195 192 194 196 196 193 191 186 181 186 194 193 188 190 193 196 194 192 196 195 192 198 201
232 277 333 262 242 212 201 203 196 221 247 300 310 315 330 84 168 211 214 200 196 199 198 198 200 195 194 190 179 181 189 192 189 189 194 197 196 192 197 198 195 199 203 202
169 114 222 243 288 202 191 226 217 233 267 256 251 311 25 20 25 258 249 219 206 203 202 200 191 187 182 174 175 183 191 194 191 192 197 194 191 196 199 193 195 201 204 205
145 191 260 285 279 188 194 257 231 229 287 346 37 74 31 19 24 22 2 303 228 203 187 173 174 170 158 164 171 180 192 197 194 193 196 194 198 202 198 192 197 202 202 205
150 179 225 247 307 308 150 275 274 214 244 335 59 89 333 5 19 37 40 38 40 67 118 144 164 151 148 157 162 179 192 196 189 186 189 195 200 200 193 191 200 199 206 210
179 212 254 293 310 343 177 254 329 310 209 155 119 160 123 21 28 42 50 50 56 64 73 96 138 137 139 143 166 181 173 165 167 177 188 192 190 186 180 189 195 201 211 219
164 199 250 333 6 110 252 302 324 324 189 118 116 105 83 58 47 46 50 50 59 67 60 54 87 114 120 133 156 134 120 127 148 162 180 185 171 171 172 181 195 208 212 226
191 216 264 306 275 281 260 271 288 164 124 129 115 105 88 72 61 56 55 52 55 65 62 52 55 81 98 101 104 107 108 114 118 124 137 149 161 166 159 169 189 205 208 228
262 279 298 313 312 327 308 207 142 125 122 122 114 104 93 80 71 64 60 59 59 63 64 55 51 59 68 74 94 101 102 101 100 106 104 99 113 132 144 166 185 196 207 223
244 277 337 352 6 16 46 72 88 89 90 97 105 98 91 81 72 69 66 64 65 67 68 59 55 54 50 55 79 87 85 84 82 87 101 102 99 95 119 147 179 190 210 209
226 234 197 298 13 53 76 82 93 93 84 79 89 93 89 82 72 69 65 62 63 58 59 57 58 53 44 47 70 81 75 68 71 74 80 88 90 76 63 74 69 76 104 157
202 127 104 76 54 65 83 85 88 90 93 89 83 86 85 79 68 66 64 61 62 60 58 59 59 51 38 44 64 73 75 71 66 70 74 81 88 90 72 52 58 59 50 53
115 101 86 75 80 80 89 91 89 86 84 88 88 85 82 78 72 67 62 61 68 68 61 59 58 46 30 47 64 67 68 67 70 70 72 77 80 79 81 77 46 23 26 30
61 87 110 105 92 88 92 97 94 90 87 83 83 84 84 82 75 67 61 64 70 69 62 61 58 40 28 52 64 60 56 51 55 58 59 62 64 67 68 68 62 39 26 19
95 95 102 103 100 96 95 98 99 97 93 89 85 84 87 89 83 71 60 62 70 65 56 58 51 31 36 53 59 56 52 55 61 60 57 56 56 57 52 49 45 40 34 13
119 116 113 110 105 101 99 101 103 103 99 95 94 94 90 85 76 67 57 56 67 64 55 54 43 33 45 53 60 59 56 55 58 64 59 56 55 54 50 46 38 26 10 4
110 112 116 119 117 109 101 98 99 99 101 103 100 92 87 85 83 74 65 63 64 55 39 33 41 47 45 46 57 61 64 61 58 61 60 57 54 51 50 46 32 15 357 357
100 103 101 101 107 108 106 102 99 96 96 97 93 88 86 84 82 77 71 66 61 51 17 16 39 50 45 41 54 59 63 64 61 55 54 52 49 41 34 28 18 11 5 4
93 95 97 97 95 100 102 99 97 94 94 99 97 90 81 72 74 77 74 65 46 16 4 37 44 43 40 42 52 57 61 62 58 50 46 43 37 28 21 18 15 10 7 3
99 101 100 99 93 91 98 104 104 99 94 97 100 100 93 79 73 74 74 61 18 21 42 48 49 44 41 45 51 56 58 58 54 47 41 36 29 21 16 14 11 7 2 357
93 97 98 97 95 88 82 88 96 99 96 93 93 95 90 80 72 66 59 56 31 41 49 49 48 52 54 54 54 54 53 51 45 36 29 24 17 8 2 358 356 353 349 345
93 97 97 98 98 92 79 75 81 89 90 90 91 93 91 83 74 81 63 30 46 55 55 51 51 49 49 51 50 49 46 41 35 28 20 12 5 -0 354 348 345 342 340 339
89 88 89 91 92 88 80 68 71 77 80 78 74 83 93 88 64 55 76 64 60 65 61 54 52 50 49 48 46 43 38 33 28 22 18 15 10 3 356 351 347 343 341 340
90 88 88 91 91 91 90 80 73 70 73 68 62 58 58 71 86 73 68 67 67 67 61 50 48 47 48 47 46 42 35 29 25 21 20 14 8 1 356 354 350 345 341 337
85 85 85 89 97 99 94 89 84 79 87 82 66 58 62 67 75 74 71 66 63 62 58 47 40 41 42 42 42 38 32 26 26 24 17 10 6 2 356 354 351 345 338 334
79 78 77 69 60 70 84 89 92 88 95 103 90 70 70 71 71 71 70 66 60 55 50 44 40 39 38 36 34 29 25 21 19 18 13 7 3 357 351 349 345 338 334 333
Height
1458 1455 1455 1456 1456 1458 1461 1464 1469 1463 1459 1450 1446 1446 1445 1445 1446 1448 1449 1452 1454 1456 1460 1463 1467 1471 1475 1479 1484 1488 1493 1497 1500 1505 1509 1512 1515 1518 1521 1524 1526 1529 1531 1533
1459 1455 1454 1456 1454 1453 1455 1456 1457 1455 1453 1445 1444 1443 1444 1444 1445 1446 1447 1449 1451 1454 1457 1460 1463 1467 1471 1476 1480 1485 1489 1493 1497 1501 1504 1508 1511 1514 1517 1519 1522 1525 1527 1529
1467 1459 1457 1462 1453 1450 1450 1449 1451 1454 1449 1444 1444 1443 1443 1443 1443 1444 1445 1447 1448 1451 1453 1456 1460 1464 1467 1472 1477 1481 1485 1489 1493 1496 1500 1503 1506 1509 1512 1515 1517 1519 1522 1524
1468 1465 1471 1457 1446 1445 1446 1447 1446 1445 1444 1444 1444 1443 1443 1442 1442 1442 1443 1444 1446 1448 1450 1453 1456 1460 1464 1469 1473 1477 1481 1485 1488 1492 1495 1498 1501 1504 1507 1509 1512 1514 1516 1519
1471 1470 1463 1452 1446 1446 1448 1447 1443 1444 1443 1444 1443 1442 1443 1443 1442 1442 1442 1443 1444 1445 1447 1450 1453 1457 1461 1465 1469 1473 1476 1480 1483 1487 1490 1493 1496 1499 1501 1504 1506 1509 1511 1513
1468 1468 1467 1454 1446 1444 1447 1450 1443 1443 1443 1443 1443 1446 1446 1445 1443 1442 1442 1442 1442 1443 1445 1448 1450 1454 1457 1461 1465 1468 1472 1476 1479 1483 1486 1489 1491 1494 1496 1499 1501 1503 1505 1507
1466 1464 1458 1450 1446 1444 1455 1451 1444 1443 1443 1443 1444 1446 1447 1445 1444 1443 1443 1443 1442 1443 1444 1446 1448 1451 1454 1458 1461 1465 1470 1473 1476 1478 1481 1484 1487 1489 1492 1494 1496 1497 1499 1502
1465 1465 1462 1448 1446 1449 1449 1445 1444 1443 1443 1443 1443 1445 1446 1446 1446 1444 1444 1444 1443 1444 1445 1446 1448 1450 1453 1457 1460 1464 1467 1470 1473 1475 1478 1480 1483 1485 1487 1490 1491 1493 1494 1496
1459 1459 1451 1448 1448 1447 1445 1444 1443 1443 1444 1444 1444 1445 1446 1447 1447 1446 1446 1445 1445 1445 1446 1447 1449 1451 1453 1458 1461 1463 1465 1468 1470 1473 1476 1477 1479 1481 1483 1485 1487 1489 1490 1491
1454 1451 1449 1447 1446 1445 1444 1443 1443 1443 1443 1444 1445 1446 1448 1448 1448 1448 1448 1448 1449 1448 1449 1451 1452 1453 1456 1459 1461 1463 1465 1468 1470 1472 1473 1475 1477 1479 1481 1482 1484 1485 1486 1487
1452 1450 1448 1447 1446 1445 1444 1444 1443 1444 1445 1446 1447 1448 1450 1451 1451 1451 1452 1453 1453 1453 1454 1455 1456 1457 1459 1462 1463 1464 1466 1468 1469 1471 1472 1474 1475 1477 1478 1480 1481 1482 1483 1484
1451 1448 1449 1449 1448 1447 1446 1446 1446 1446 1447 1449 1450 1452 1453 1454 1455 1456 1457 1457 1458 1459 1459 1460 1461 1462 1463 1465 1465 1466 1467 1469 1470 1472 1473 1474 1475 1476 1477 1478 1479 1480 1480 1481
1447 1448 1448 1449 1449 1449 1448 1449 1449 1450 1451 1453 1455 1456 1457 1458 1460 1461 1462 1463 1464 1464 1464 1465 1465 1466 1467 1468 1468 1469 1470 1471 1472 1473 1474 1474 1475 1476 1477 1478 1478 1479 1479 1478
1447 1447 1448 1450 1451 1452 1452 1453 1454 1455 1457 1459 1460 1462 1463 1464 1466 1467 1468 1469 1469 1470 1470 1470 1470 1470 1471 1472 1472 1472 1473 1474 1474 1475 1475 1475 1475 1476 1476 1476 1477 1477 1477 1476
1448 1448 1450 1452 1454 1455 1457 1458 1459 1461 1463 1464 1466 1468 1469 1470 1471 1472 1473 1474 1474 1474 1474 1474 1474 1475 1475 1475 1475 1475 1476 1476 1475 1475 1476 1475 1475 1475 1476 1476 1475 1475 1475 1475
1450 1451 1453 1455 1457 1459 1461 1462 1464 1466 1468 1469 1471 1472 1474 1475 1476 1476 1477 1477 1477 1477 1478 1478 1478 1478 1478 1478 1478 1478 1478 1477 1477 1477 1476 1476 1476 1476 1476 1475 1475 1474 1473 1473
1451 1454 1455 1458 1460 1463 1465 1467 1468 1470 1472 1474 1476 1477 1478 1479 1480 1480 1481 1481 1481 1481 1482 1482 1482 1482 1482 1481 1481 1480 1479 1479 1479 1478 1478 1478 1477 1477 1476 1475 1475 1474 1473 1472
1454 1456 1458 1461 1463 1466 1468 1471 1473 1475 1476 1478 1480 1481 1482 1482 1483 1484 1484 1485 1485 1484 1484 1485 1485 1484 1484 1483 1483 1482 1481 1480 1480 1479 1479 1478 1477 1477 1476 1475 1474 1473 1472 1471
1457 1459 1462 1465 1468 1470 1472 1474 1477 1479 1480 1482 1483 1484 1485 1486 1486 1487 1487 1487 1487 1486 1487 1487 1486 1486 1485 1484 1483 1482 1482 1481 1480 1480 1479 1478 1477 1476 1475 1474 1472 1471 1470 1468
1461 1463 1466 1469 1472 1474 1476 1478 1480 1482 1484 1485 1486 1487 1488 1489 1489 1490 1490 1489 1489 1489 1489 1488 1487 1486 1486 1485 1484 1483 1482 1481 1480 1479 1478 1477 1476 1475 1473 1472 1471 1469 1468 1466
1465 1467 1470 1472 1475 1477 1480 1482 1484 1485 1487 1488 1489 1490 1491 1491 1492 1492 1491 1491 1491 1491 1490 1489 1488 1487 1486 1485 1484 1483 1482 1481 1480 1478 1477 1476 1475 1474 1472 1471 1469 1468 1466 1464
1469 1471 1474 1476 1478 1481 1483 1485 1487 1488 1489 1491 1491 1492 1493 1493 1494 1493 1493 1493 1493 1492 1491 1490 1489 1488 1486 1485 1483 1482 1481 1480 1479 1477 1476 1475 1473 1472 1471 1469 1468 1466 1464 1462
1474 1476 1478 1480 1482 1484 1487 1488 1490 1491 1492 1493 1493 1494 1495 1495 1495 1495 1494 1494 1493 1493 1492 1490 1489 1487 1486 1484 1482 1481 1480 1479 1477 1476 1475 1473 1472 1470 1469 1468 1466 1464 1462 1460
1478 1480 1482 1484 1486 1487 1489 1491 1492 1493 1494 1494 1495 1496 1496 1496 1496 1496 1495 1495 1494 1493 1491 1490 1488 1487 1485 1484 1482 1481 1479 1478 1476 1475 1473 1472 1470 1469 1467 1466 1464 1462 1460 1457
1482 1483 1485 1487 1488 1489 1491 1492 1493 1494 1495 1495 1496 1496 1496 1496 1496 1496 1495 1494 1493 1492 1491 1490 1488 1486 1485 1483 1481 1480 1478 1477 1475 1474 1472 1471 1469 1468 1466 1464 1462 1460 1457 1455
1485 1486 1488 1489 1491 1492 1493 1494 1494 1495 1496 1496 1496 1496 1496 1496 1496 1495 1495 1494 1493 1492 1490 1489 1487 1486 1484 1482 1481 1479 1478 1476 1475 1473 1471 1470 1468 1466 1464 1462 1460 1458 1456 1453
1488 1489 1490 1491 1493 1493 1494 1495 1495 1496 1496 1496 1496 1496 1496 1496 1496 1495 1494 1493 1492 1491 1490 1488 1487 1485 1484 1482 1481 1479 1478 1476 1474 1473 1471 1469 1467 1465 1463 1461 1459 1457 1455 1452